Location: Memphis
(29.8667°N, 31.2500°E)
Time: 09:09:38
(UTC+00:00)

SWIFT - Pass Details

Date: 03 March 2021
Orbit: 544 x 559 km, 20.6° (Epoch: 15 April)

Event Time Altitude Azimuth Distance (km) Brightness Sun altitude
Rises 16:39:25 0° 240° (WSW) 2,686 7.0 -10.3°
Reaches altitude 10° 16:42:07 10° 223° (SW) 1,793 5.6 -10.9°
Maximum altitude 16:45:15 21° 174° (S) 1,256 4.1 -11.6°
Enters shadow 16:48:03 11° 129° (SE) 1,700 4.4 -12.2°
